EW9240 Weather Reports


Display with metric or nautical units.
time (UTC)temp
F
wind
direction
speed
MPH
gust
MPH
rain 1hr
in
rain 24hr
in
rain mn
in
humidity
%
barometer
mb
20260831190038 71 336 0.0 4.0 0.00 0.00 0.00 60 1007.7
20260831184519 70 323 1.0 5.0 0.00 0.00 0.00 60 1007.9
20260831183002 70 326 1.0 5.0 0.00 0.00 0.00 61 1008.2
20260831181545 68 334 0.0 4.0 0.00 0.00 0.00 63 1008.3
20260831180052 68 337 0.0 3.0 0.00 0.00 0.00 65 1008.5
20260831174534 67 57 1.0 4.0 0.00 0.00 0.00 66 1008.6
20260831173019 66 357 0.0 6.0 0.00 0.00 0.00 69 1008.7
20260831171606 65 283 0.0 4.0 0.00 0.00 0.00 70 1008.8
20260831170049 65 305 0.0 2.0 0.00 0.00 0.00 72 1008.9
20260831164529 64 334 2.0 4.0 0.00 0.00 0.00 73 1008.9
20260831163016 63 290 0.0 4.0 0.00 0.00 0.00 75 1009.0
20260831161603 61 307 1.0 4.0 0.00 0.00 0.00 78 1009.3
20260831160047 60 283 0.0 3.0 0.00 0.00 0.00 81 1009.5
20260831154530 58 288 0.0 3.0 0.00 0.00 0.00 84 1009.6
20260831153023 57 277 0.0 4.0 0.00 0.00 0.00 85 1009.7
20260831151605 57 274 0.0 3.0 0.00 0.00 0.00 86 1009.7
20260831150052 56 307 0.0 2.0 0.00 0.00 0.00 88 1009.7
20260831144542 55 288 0.0 3.0 0.00 0.00 0.00 90 1009.9
20260831143043 53 300 0.0 0.0 0.00 0.00 0.00 89 1009.9
20260831141535 52 300 0.0 0.0 0.00 0.00 0.00 90 1009.9
20260831140105 50 300 0.0 0.0 0.00 0.00 0.00 90 1009.9
20260831134513 50 295 0.0 0.0 0.00 0.00 0.00 90 1010.0
20260831133113 51 295 0.0 0.0 0.00 0.00 0.00 90 1009.9
20260831131549 51 295 0.0 0.0 0.00 0.00 0.00 89 1010.1
20260831130043 51 295 0.0 0.0 0.00 0.00 0.00 89 1010.1
20260831124521 51 295 0.0 0.0 0.00 0.00 0.00 89 1010.2
20260831123003 51 295 0.0 0.0 0.00 0.00 0.00 89 1010.2
20260831121552 52 295 0.0 0.0 0.00 0.00 0.00 89 1010.4
20260831120037 52 295 0.0 0.0 0.00 0.00 0.00 88 1010.5
20260831114529 52 295 0.0 0.0 0.00 0.00 0.00 88 1010.5
20260831113007 52 295 0.0 0.0 0.00 0.00 0.00 88 1010.5
20260831111558 53 295 0.0 0.0 0.00 0.00 0.00 88 1010.7
20260831110039 53 295 0.0 0.0 0.00 0.00 0.00 87 1010.8
20260831104525 53 295 0.0 0.0 0.00 0.00 0.00 87 1010.9
20260831103009 54 295 0.0 0.0 0.00 0.00 0.00 87 1010.9
20260831101616 54 295 0.0 0.0 0.00 0.00 0.00 86 1010.9
20260831100056 54 296 0.0 0.0 0.00 0.00 0.00 86 1011.0
20260831094531 54 297 0.0 0.0 0.00 0.00 0.00 85 1011.2
20260831093015 55 297 0.0 0.0 0.00 0.00 0.00 85 1011.3
20260831091602 55 297 0.0 0.0 0.00 0.00 0.00 85 1011.5
20260831090007 55 297 0.0 0.0 0.00 0.00 0.00 84 1011.5
20260831084558 56 297 0.0 0.0 0.00 0.00 0.00 84 1011.7
20260831083039 56 297 0.0 0.0 0.00 0.00 0.00 84 1011.9
20260831081524 57 297 0.0 0.0 0.00 0.00 0.00 83 1012.0
20260831080009 57 297 0.0 0.0 0.00 0.00 0.00 83 1012.1
20260831074602 58 297 0.0 0.0 0.00 0.00 0.00 82 1012.2
20260831073019 58 297 0.0 0.0 0.00 0.00 0.00 81 1012.3
20260831071553 59 297 0.0 0.0 0.00 0.00 0.00 80 1012.5
20260831070039 60 297 0.0 0.0 0.00 0.00 0.00 80 1012.5
20260831064523 60 297 0.0 0.0 0.00 0.00 0.00 79 1012.8
20260831063014 60 297 0.0 0.0 0.00 0.00 0.00 79 1012.7
20260831061607 61 297 0.0 0.0 0.00 0.00 0.00 77 1012.8
20260831060047 61 297 0.0 0.0 0.00 0.00 0.00 77 1013.0
20260831054556 62 297 0.0 0.0 0.00 0.00 0.00 76 1013.0
20260831053042 62 297 0.0 0.0 0.00 0.00 0.00 75 1013.1
20260831051527 63 297 0.0 0.0 0.00 0.00 0.00 73 1013.3
20260831050005 64 297 0.0 1.0 0.00 0.00 0.00 71 1013.5
20260831044558 64 272 0.0 2.0 0.00 0.00 0.00 71 1013.5
20260831043045 65 301 0.0 0.0 0.00 0.00 0.00 69 1013.6
20260831041531 66 289 0.0 2.0 0.00 0.00 0.00 68 1013.7
20260831040016 66 297 0.0 1.0 0.00 0.00 0.00 67 1013.7
20260831034506 67 284 0.0 2.0 0.00 0.00 0.00 66 1013.7
20260831033016 67 287 0.0 4.0 0.00 0.00 0.00 64 1013.7
20260831031501 68 274 0.0 0.0 0.00 0.00 0.00 63 1013.7
20260831030110 68 278 0.0 3.0 0.00 0.00 0.00 62 1013.7
20260831024607 69 295 1.0 4.0 0.00 0.00 0.00 61 1013.7
20260831023004 69 323 0.0 4.0 0.00 0.00 0.00 60 1013.9
20260831021554 69 278 3.0 6.0 0.00 0.00 0.00 59 1014.0
20260831020041 70 269 2.0 5.0 0.00 0.00 0.00 58 1013.9
20260831014536 70 288 0.0 5.0 0.00 0.00 0.00 57 1014.1
20260831013020 70 305 2.0 8.0 0.00 0.00 0.00 57 1014.2
20260831011503 71 276 0.0 4.0 0.00 0.00 0.00 56 1014.3
20260831010047 71 325 3.0 7.0 0.00 0.00 0.00 55 1014.5
20260831004534 71 304 1.0 4.0 0.00 0.00 0.00 56 1014.6
20260831003018 71 288 0.0 3.0 0.00 0.00 0.00 56 1014.6
20260831001545 71 271 1.0 5.0 0.00 0.00 0.00 56 1014.8
20260831000033 71 276 2.0 6.0 0.00 0.00 0.00 55 1014.8
20260830234513 70 302 0.0 5.0 0.00 0.00 0.00 55 1015.0
20260830233104 70 266 3.0 8.0 0.00 0.00 0.00 55 1015.0
20260830231542 70 319 1.0 6.0 0.00 0.00 0.00 54 1015.2
20260830230026 70 270 0.0 8.0 0.00 0.00 0.00 55 1015.4
20260830224512 70 287 1.0 6.0 0.00 0.00 0.00 55 1015.7
20260830223103 69 285 1.0 5.0 0.00 0.00 0.00 56 1016.0
20260830221525 68 295 2.0 7.0 0.00 0.00 0.00 56 1016.3
20260830220032 68 293 1.0 7.0 0.00 0.00 0.00 57 1016.4
20260830214515 68 274 1.0 4.0 0.00 0.00 0.00 58 1016.7
20260830213103 68 283 2.0 7.0 0.00 0.00 0.00 58 1016.8
20260830210007 67 349 3.0 6.0 0.00 0.00 0.00 58 1017.2
20260830204559 66 348 0.0 7.0 0.00 0.00 0.00 60 1017.3
20260830203049 65 309 1.0 7.0 0.00 0.00 0.00 61 1017.6
20260830201539 65 290 2.0 5.0 0.00 0.00 0.00 60 1017.8
20260830200010 65 276 3.0 5.0 0.00 0.00 0.00 60 1017.9
20260830194608 64 272 0.0 4.0 0.00 0.00 0.00 62 1018.0
20260830193049 65 271 2.0 8.0 0.00 0.00 0.00 62 1018.2